Regional Weather Roundup
Issued by NWS Columbia, SC

Home | Current Version | Previous Version | Text Only | Print | Product List | Glossary On
Versions: 1 2 3 4 5 6 7 8 9 10 11 12 13 14 15 16 17 18 19 20 21 22 23 24 25 26 27 28 29 30 31 32 33 34 35 36 37 38 39 40 41 42 43 44 45 46 47 48 49 50
000
ASUS42 KCAE 032310
RWRCAE
SOUTH CAROLINA REGIONAL WEATHER ROUNDUP
NATIONAL WEATHER SERVICE COLUMBIA SC
700 PM EDT THU SEP 03 2015

Note: "fair" indicates few or no clouds below 12,000 feet with no
significant weather and/or obstructions to visibility.

SCZ003-006-007-009-010-040000-
UPSTATE

CITY           SKY/WX    TMP DP  RH WIND       PRES   REMARKS
ANDERSON       MOSUNNY   84  67  56 SW5       29.92S
CLEMSON        PTSUNNY   83  68  60 NW9       29.95S
GREENVILLE     MOSUNNY   88  63  43 SW8       29.93S
GREENWOOD      PTCLDY    84  71  65 SE6       29.93R
GREER          PTCLDY    89  60  37 NW3       29.91S
ROCK HILL      PTCLDY    90  63  40 CALM      29.91S
$$

SCZ027-028-031-032-036-040000-
CENTRAL

CITY           SKY/WX    TMP DP  RH WIND       PRES   REMARKS
COLUMBIA APT   CLOUDY    87  72  60 CALM      29.89S
COLUMBIA OWENS CLOUDY    84  66  54 CALM      29.89F
MCENTIRE ANGB  MOCLDY    83  72  69 NW3       29.89F
ORANGEBURG     CLOUDY    83  73  72 S3        29.90S
SUMTER SHAW    CLOUDY    82  72  69 CALM      29.86F
$$

SCZ034-044-045-048-050-040000-
COAST

CITY           SKY/WX    TMP DP  RH WIND       PRES   REMARKS
CHARLESTON APT CLOUDY    83  74  74 S8        29.89R
BEAUFORT       MOCLDY    85  76  74 S5        29.88S
$$



USA.gov is the U.S. government's official web portal to all federal, state and local government web resources and services.